sat.trackr.live / text

‹ back to catalog

STARLINK-36953

NORAD 68010 · 2026-039AA

PAYLOAD ACTIVE UNKNOWN

§ Identity

Operator
Country
US
Launch date
2026-02-27
Launch site
AFETR
Launch vehicle
Mass (kg)
RCS (m²)

Purposes: comms

External: N2YO · Heavens-Above · Gunter

§ Orbital elements

Epoch: 2026-09-20T01:43:15.591072Z

Period
94.27 min
Inclination
43.0046°
Eccentricity
0.0001312
Mean motion
15.27566797 rev/d
Perigee alt
482.2 km
Apogee alt
484.0 km
Semi-major
6,861.2 km
B*
4.3043e-5
RAAN
30.9743°
Arg perigee
277.3092°
Mean anomaly
82.7611°
Rev number
3,143

§ Raw data

STARLINK-369531 68010U 26039AA  26263.07170823  .00000922  00000+0  43043-4 0  99922 68010  43.0046  30.9743 0001312 277.3092  82.7611 15.27566797 31438

JSON: /api/v1/satellites/68010 · /tle

For live sub-satellite position, see the globe view (requires WebGL).

§ Visibility from observer

Set your observer location to see the next 7 days of passes ≥ 10°. The values pass through the URL so the page stays shareable.

No JS? Fill the form by hand. The geolocation button needs JavaScript.